Location: Unspecified
(0.0000°N, 0.0000°E)
Time: 19:34:30
(UTC+00:00)

Transit 4A - Pass Details

Date: 28 May 2022
Orbit: 864 x 980 km, 66.8° (Epoch: 26 June)

Event Time Altitude Azimuth Distance (km) Brightness Sun altitude
Rises 01:59:35 0° 207° (SSW) 3,573 - -53.3°
Reaches altitude 10° 02:02:06 10° 210° (SSW) 2,645 - -52.8°
Maximum altitude 02:08:11 62° 289° (WNW) 1,069 - -51.5°
Drops below altitude 10° 02:14:25 10° 9° (N) 2,702 - -50.3°
Exits shadow 02:15:38 - 11° (N) 3,144 11.0 -50.0°
Sets 02:17:02 0° 13° (NNE) 3,655 11.4 -49.7°
